Location: Eschentzwiller
(47.7125°N, 7.3981°E)
Time: 04:15:43
(UTC+00:00)

Ariane Rocket - Pass Details

Date: 27 October 2020
Orbit: 759 x 771 km, 98.7° (Epoch: 01 December)

Event Time Altitude Azimuth Distance (km) Brightness Sun altitude
Exits shadow 19:07:48 40° 358° (N) 1,130 3.9 -28.7°
Drops below altitude 10° 19:11:04 10° 349° (N) 2,325 5.7 -29.2°
Sets 19:13:23 0° 348° (NNW) 3,255 6.6 -29.6°
